Location: ?????
(32.7281°N, 34.9563°E)
Time: 18:14:35
(UTC+00:00)

Cosmos 2219 - Pass Details

Date: 29 October 2020
Orbit: 832 x 862 km, 71.1° (Epoch: 30 November)

Event Time Altitude Azimuth Distance (km) Brightness Sun altitude
Rises 16:26:04 0° 332° (NNW) 3,442 6.7 -20.3°
Reaches altitude 10° 16:28:36 10° 327° (NNW) 2,502 6.0 -20.9°
Maximum altitude 16:34:07 48° 255° (WSW) 1,105 4.2 -22.0°
Drops below altitude 10° 16:39:35 10° 182° (S) 2,483 5.7 -23.2°
Sets 16:42:06 0° 176° (S) 3,413 6.3 -23.7°
